Location: Nelson
(41.2830°S, 173.2830°E)
Time: 05:04:28
(UTC+12:00)

Cosmos 2026 Rocket - Pass Details

Date: 14 May 2021
Orbit: 940 x 1000 km, 82.9° (Epoch: 16 June)

Event Time Altitude Azimuth Distance (km) Brightness Sun altitude
Rises 17:55:57 0° 13° (NNE) 3,711 7.1 -7.3°
Reaches altitude 10° 17:58:33 10° 18° (NNE) 2,771 6.4 -7.8°
Maximum altitude 18:04:37 48° 90° (E) 1,304 4.3 -8.8°
Drops below altitude 10° 18:10:43 10° 161° (SSE) 2,793 6.1 -9.9°
Sets 18:13:21 0° 166° (SSE) 3,744 6.8 -10.4°
